Wind_Speed
4 2 2 2 3 4 4 4 3 4 4 5 5 5 7 6 7 9 3 2 2 1 7 9 10 16 19 17 16 21 21 18 20 20 21 22 22 23 22 22 24 23 23 19 15 16 17 18 19 19 19 20 21 21 21 22 24 25 26 28 29 29 30 32 33 34 35 35 34 32 31 29 26 23 21 19 19 19 19 20 22 23 22 20 21 23
2 2 3 2 2 3 3 2 3 4 4 5 5 5 7 6 7 6 1 1 2 1 6 9 11 16 17 18 19 20 15 13 16 15 16 20 19 18 19 21 24 24 22 17 15 18 19 18 19 19 19 20 21 21 21 23 24 25 26 28 30 30 31 32 34 35 35 35 34 32 30 28 25 23 21 19 20 20 20 20 22 23 23 23 23 22
1 2 1 2 3 2 2 2 3 4 4 4 4 4 6 4 5 4 2 2 2 1 7 10 11 14 17 19 19 17 12 12 16 12 11 14 14 14 14 17 20 19 18 16 15 15 16 18 17 17 17 18 20 20 21 23 24 25 26 28 30 31 32 32 33 34 35 34 33 31 29 27 24 21 19 19 19 20 20 22 23 24 24 25 24 22
2 1 1 2 3 3 3 3 3 5 4 4 5 5 5 4 5 4 0 2 3 4 9 11 10 11 14 14 13 12 8 6 6 6 9 11 12 12 12 16 18 14 11 9 9 9 11 14 16 16 17 19 21 21 21 23 24 25 26 27 28 30 32 32 33 34 33 33 32 30 29 27 24 21 20 19 19 20 21 23 25 26 25 24 23 20
1 1 1 1 4 3 3 4 3 3 4 4 3 2 4 5 5 6 6 8 8 6 6 7 8 7 5 7 8 4 1 1 1 4 8 9 8 9 11 14 15 12 12 13 11 11 12 15 18 19 19 21 23 23 24 25 25 25 25 26 28 29 31 32 33 33 32 32 32 31 30 29 27 25 23 21 20 21 21 22 23 24 24 24 23 21
1 2 1 2 3 2 3 5 2 2 4 5 1 1 2 4 6 9 9 9 7 4 1 2 6 5 2 7 8 3 5 3 2 3 8 10 8 9 15 20 21 18 17 19 18 17 16 17 20 21 22 24 26 27 28 30 30 29 27 27 28 29 30 32 33 33 33 33 33 33 33 31 29 28 26 23 21 20 21 21 22 22 24 24 24 23
1 2 2 2 3 3 4 4 1 4 3 5 2 2 2 4 7 9 7 5 3 5 3 1 2 5 5 7 5 4 7 7 7 7 11 16 18 19 23 25 26 23 21 21 20 19 19 20 22 22 22 24 28 30 31 32 33 33 31 30 30 30 30 31 33 34 34 34 33 34 34 33 31 29 27 24 22 21 20 21 21 22 24 26 25 25
1 2 3 2 2 4 4 2 2 3 2 3 2 1 5 7 9 9 5 3 4 6 8 5 5 2 6 6 4 4 6 7 8 9 11 16 22 24 25 25 24 23 21 21 21 22 23 24 25 25 23 23 27 29 31 32 33 34 34 33 32 31 31 31 33 34 35 34 33 33 33 33 32 30 27 24 22 20 19 20 21 23 25 27 27 25
1 1 1 1 2 3 2 1 2 3 1 2 2 3 7 9 10 6 3 4 4 5 7 2 4 1 5 4 4 4 6 8 9 9 10 12 19 22 21 22 24 24 22 21 22 24 26 27 27 28 27 27 26 27 29 31 32 33 34 34 33 33 32 32 33 35 35 34 33 33 33 33 32 30 27 24 21 21 21 21 22 23 25 26 27 26
1 2 1 1 1 2 3 1 0 1 3 4 6 7 9 9 7 3 2 4 3 3 4 3 3 1 5 5 5 5 6 7 7 7 8 12 17 17 17 19 23 25 23 23 25 27 29 31 30 29 30 30 28 27 29 31 32 32 33 33 34 35 34 33 33 35 35 34 32 32 33 32 32 31 29 26 24 23 22 22 22 23 24 25 26 26
2 1 1 1 2 2 3 5 4 4 4 7 7 7 8 6 2 3 2 2 2 2 3 6 5 3 4 5 4 5 3 2 6 7 7 12 17 16 17 19 21 23 22 23 27 29 31 32 31 30 30 30 29 29 29 30 31 31 31 32 34 35 34 34 34 35 35 34 33 32 32 32 32 31 30 28 26 25 23 22 22 22 23 24 25 25
2 1 1 2 3 2 3 5 1 2 2 4 4 4 6 5 2 2 0 1 2 3 3 5 5 3 3 5 5 6 4 4 7 6 4 6 10 14 17 17 19 21 20 23 29 31 33 33 32 29 29 31 31 30 29 29 29 29 30 31 33 34 34 34 35 36 36 35 33 32 32 32 32 31 31 29 28 26 24 22 21 22 23 24 24 25
2 1 1 2 2 3 3 3 2 1 1 2 4 4 5 5 3 3 3 2 3 2 3 3 5 3 4 6 7 4 6 6 6 5 3 2 5 11 15 16 18 20 21 27 32 33 33 34 33 30 30 32 32 30 28 28 29 29 30 30 32 33 32 33 34 35 37 36 34 33 32 32 32 31 31 30 29 27 24 22 21 22 23 24 25 25
4 1 1 1 1 3 3 4 3 1 3 5 4 4 3 3 4 5 4 4 4 4 5 3 3 4 5 6 3 4 6 6 8 8 6 7 10 15 17 16 18 22 26 30 33 34 34 33 33 31 31 33 33 30 28 28 30 31 32 33 33 33 32 32 33 35 36 37 35 34 33 32 32 32 31 30 29 27 25 23 22 23 24 24 25 25
3 2 2 2 1 3 3 3 1 3 5 4 2 2 2 2 2 3 3 4 5 7 8 3 2 3 5 6 2 7 7 7 9 8 14 17 17 18 17 17 21 26 29 31 33 35 34 32 32 32 33 35 35 32 30 29 30 31 34 35 35 34 32 31 32 34 35 36 36 35 33 33 32 32 31 30 29 28 26 24 23 23 24 24 24 25
3 2 2 2 1 1 2 1 1 2 2 3 1 2 1 2 3 2 4 5 5 6 6 2 1 5 5 8 4 4 5 5 6 13 19 17 17 16 16 19 24 28 29 31 34 34 32 32 33 33 34 35 36 34 33 32 33 33 35 36 34 34 32 30 31 33 34 35 35 35 34 33 33 32 31 30 30 29 27 25 24 24 24 24 24 25
2 4 7 4 2 3 3 1 1 2 1 2 2 2 2 4 6 1 5 6 4 4 4 3 4 7 5 7 5 6 12 11 9 12 12 12 15 15 16 21 26 28 29 31 31 29 30 31 32 32 32 34 34 34 34 35 35 35 36 36 32 31 30 29 29 30 33 34 35 36 35 34 34 32 32 31 30 29 27 26 25 25 25 24 24 25
1 6 8 4 2 2 2 1 2 2 1 1 2 3 4 1 4 1 2 4 4 4 4 4 8 9 5 4 6 9 12 10 8 9 8 10 14 15 19 24 28 28 29 28 27 27 27 28 29 29 30 31 31 31 31 33 34 34 36 36 33 29 28 26 26 27 30 33 35 35 35 35 34 33 32 31 30 29 28 28 26 25 25 24 24 25
2 4 4 1 1 1 3 2 3 3 3 1 3 5 2 1 1 2 2 2 3 4 4 6 9 9 4 4 4 9 11 10 10 10 7 8 12 16 21 25 28 29 28 26 25 26 26 28 29 29 29 31 31 30 29 28 30 32 35 36 33 30 27 25 24 24 28 32 34 34 35 35 35 34 32 31 31 30 30 29 28 26 25 24 24 25
2 2 2 2 3 2 2 1 3 3 3 2 3 4 1 1 3 3 1 1 2 3 4 6 8 8 6 4 5 11 12 8 10 10 6 7 13 18 22 25 28 28 25 24 26 26 26 29 31 31 32 33 32 32 32 30 29 30 32 34 33 32 28 25 23 23 26 29 32 33 34 35 35 34 33 32 31 31 31 30 29 27 26 25 25 25
3 1 4 5 7 6 2 0 1 2 3 2 2 1 1 1 1 2 1 1 1 2 3 5 7 9 8 5 7 12 11 8 10 8 5 8 15 20 22 26 28 25 23 25 26 26 27 30 32 34 34 34 35 35 35 35 33 32 31 32 33 33 30 27 24 23 24 27 29 31 33 35 35 35 34 33 33 32 32 31 30 28 27 26 25 25
3 1 4 5 6 6 3 3 4 4 3 2 2 2 1 0 1 3 4 1 1 1 3 3 6 11 10 5 6 9 7 9 11 8 6 11 18 21 23 26 26 23 23 26 24 24 27 31 33 35 35 36 37 37 37 37 36 35 33 32 33 34 33 30 27 24 24 25 28 30 32 34 35 35 35 35 34 34 33 33 31 28 27 27 26 24
2 1 3 5 5 6 5 5 6 5 2 2 3 1 1 1 2 1 4 4 3 2 2 2 5 10 8 3 4 7 8 12 16 12 8 13 19 22 24 27 26 24 24 24 22 23 26 30 32 34 35 36 37 38 38 38 37 37 35 33 34 35 35 34 30 26 25 24 26 29 31 33 35 35 36 36 36 35 34 34 32 30 29 28 26 24
3 1 2 5 5 4 4 5 5 3 2 2 3 2 2 1 2 3 3 2 3 3 1 1 5 8 6 3 5 10 13 17 19 15 10 14 19 22 23 26 25 24 26 24 21 22 25 28 32 34 35 36 37 37 38 38 38 38 37 35 34 35 36 36 33 29 26 25 25 27 30 33 35 36 37 38 37 36 35 34 33 31 30 28 26 25
3 0 2 4 5 5 6 5 5 3 2 3 4 1 3 2 3 2 1 1 0 5 5 3 5 9 8 6 9 13 15 16 18 15 11 13 18 21 22 25 25 25 26 24 22 23 26 28 32 34 36 37 38 38 39 39 39 40 40 37 35 36 37 36 35 32 29 26 25 26 29 32 34 36 38 39 39 38 37 36 34 32 31 30 28 26
2 2 2 1 2 5 5 5 5 5 5 6 6 2 1 3 4 2 1 1 2 5 4 4 7 11 13 12 12 13 13 15 17 15 13 16 19 20 21 25 28 27 26 24 23 24 27 30 33 35 37 38 39 39 39 39 40 41 42 40 37 38 38 37 37 35 32 29 28 28 29 30 33 36 38 39 39 39 38 37 36 34 33 31 29 26
1 3 3 5 6 5 5 8 8 6 7 10 13 12 6 4 7 4 2 3 5 4 5 8 10 12 15 15 13 13 15 15 14 11 14 19 22 23 23 26 31 31 26 23 23 25 29 32 33 35 37 39 39 39 39 39 40 41 42 41 40 40 40 39 37 37 35 32 30 31 31 32 33 35 38 39 39 40 40 39 37 36 34 33 30 28
1 4 4 6 9 9 8 12 13 10 9 13 15 16 12 5 7 7 6 8 5 2 6 12 10 9 14 16 14 16 17 14 9 10 15 20 24 26 26 29 35 33 26 21 22 27 31 33 35 36 38 39 40 41 41 40 40 41 41 41 41 41 41 40 39 37 36 34 32 32 33 33 34 35 38 39 40 41 41 40 39 38 36 34 32 29
1 4 2 2 7 12 10 13 15 11 10 13 14 15 15 9 7 10 12 13 7 4 10 15 13 14 16 17 16 18 16 12 11 15 19 23 25 26 28 34 38 32 23 22 26 30 32 34 35 37 38 41 42 43 43 42 42 42 42 40 41 42 42 41 40 38 36 34 33 32 32 32 33 35 37 40 41 42 43 41 40 39 38 36 33 30
1 2 2 1 7 12 11 13 14 10 9 14 16 14 13 13 11 12 14 14 11 12 16 17 16 18 18 16 17 19 17 15 17 21 23 23 24 27 34 38 35 27 25 29 32 33 34 35 36 38 39 41 43 44 45 44 44 44 43 42 41 42 42 40 40 39 38 36 34 32 31 31 32 34 36 39 41 43 43 43 41 40 38 37 34 31
2 1 4 3 7 12 10 8 8 8 10 16 18 15 13 13 12 11 11 10 9 12 16 15 14 16 15 15 17 19 17 16 18 22 23 22 26 33 36 34 29 28 31 34 34 35 36 38 40 41 42 42 44 45 46 46 46 45 43 42 42 43 43 41 39 38 37 37 35 33 31 30 31 33 35 38 40 42 43 43 42 40 39 37 35 31
2 2 5 5 6 10 7 6 10 11 12 14 15 13 11 10 9 8 8 7 7 9 12 11 10 11 12 14 16 16 15 16 18 21 22 25 31 33 31 29 31 33 34 34 35 37 39 41 43 43 44 45 46 47 48 48 48 46 44 43 43 43 44 42 40 38 37 36 35 34 32 31 30 31 34 36 38 40 42 42 42 41 40 38 36 33
1 1 3 4 5 8 9 11 14 13 10 8 7 7 8 9 9 8 8 8 8 7 7 8 10 13 15 14 12 11 13 16 19 23 26 28 31 31 31 31 32 34 35 35 37 38 40 42 43 44 45 47 48 49 49 49 48 47 46 45 44 44 45 44 42 39 38 36 35 33 32 31 30 30 32 34 37 39 40 42 43 43 42 40 37 33
2 1 2 2 3 7 12 13 12 10 5 4 7 12 12 10 9 9 10 11 9 6 7 11 15 16 15 12 11 12 15 18 23 29 30 29 29 30 32 33 33 35 38 39 40 41 42 43 43 45 47 49 50 50 50 48 47 47 47 46 45 45 45 45 43 41 40 38 36 33 32 31 30 30 30 32 34 37 40 42 44 44 43 40 37 35
0 2 3 3 2 5 9 9 8 8 6 8 14 16 10 6 6 8 11 11 10 12 14 15 15 15 15 16 20 23 23 25 29 29 28 33 35 35 36 38 40 42 42 41 42 43 43 44 45 46 48 50 50 50 49 48 47 46 46 47 47 47 46 45 44 42 41 39 37 35 32 31 30 29 28 30 32 36 39 42 43 44 43 41 38 37
1 1 2 2 3 4 5 4 5 9 12 15 16 12 5 5 5 8 11 11 10 14 17 17 17 19 23 27 30 33 34 34 30 23 29 40 44 42 42 43 42 42 41 41 42 42 43 44 44 45 47 48 48 49 48 48 48 47 48 49 49 48 47 45 44 43 41 40 39 37 34 32 31 29 27 28 31 34 38 41 43 43 42 41 39 38
4 1 1 2 3 3 4 5 7 10 13 11 8 4 3 4 6 7 9 8 11 18 20 19 18 21 27 30 33 37 39 32 21 17 31 43 44 43 46 46 44 43 43 43 44 44 44 44 44 44 45 46 47 48 48 48 48 47 48 49 49 48 46 44 44 44 42 41 40 38 35 33 32 30 28 27 29 33 36 39 41 42 41 41 40 39
5 3 0 1 2 2 4 5 6 8 9 7 5 3 4 11 12 6 5 3 12 24 28 22 18 20 24 28 34 36 32 20 9 11 29 42 44 45 47 48 47 47 45 45 45 45 45 44 44 44 44 44 46 48 49 49 48 47 47 48 48 47 45 44 44 43 43 42 41 38 36 34 33 31 29 28 29 31 34 37 39 40 40 41 41 40
4 3 1 1 3 3 3 4 5 6 6 8 11 10 17 24 16 5 3 4 13 30 36 27 23 26 26 28 32 28 19 11 6 13 32 43 44 43 45 46 47 47 45 45 45 45 45 46 46 45 44 44 47 49 49 49 47 46 47 48 48 47 45 43 44 43 43 43 42 39 36 35 33 32 30 29 29 30 32 35 37 39 40 40 39 39
2 1 1 3 5 4 4 5 4 5 3 12 16 19 30 31 16 5 6 6 16 32 35 27 25 27 26 28 28 18 10 11 13 23 39 46 44 44 45 45 46 46 46 47 46 46 47 48 47 46 46 46 47 48 48 47 46 46 47 48 48 47 45 45 45 44 43 43 42 40 37 35 33 32 31 30 29 29 31 33 35 38 40 39 38 37
2 3 3 4 4 6 6 5 5 4 4 15 17 23 35 28 10 5 7 10 21 31 29 27 28 28 28 31 26 16 15 24 31 39 47 47 46 47 47 46 47 47 47 47 47 48 49 49 48 48 47 47 47 47 47 46 45 45 46 47 48 48 47 46 46 44 43 42 42 40 38 37 35 34 34 32 30 29 29 31 34 36 38 38 37 37
2 2 2 4 4 5 5 4 6 3 10 24 24 29 37 22 3 5 13 19 27 29 27 30 33 33 34 35 32 29 33 40 45 47 49 48 48 49 48 48 49 49 48 48 48 49 49 49 49 48 47 47 47 47 47 46 45 45 46 46 48 49 48 47 45 44 43 42 42 41 40 39 36 36 35 33 30 29 29 30 32 34 36 37 37 36
2 2 4 3 3 4 3 6 7 4 11 28 25 21 24 15 7 15 23 25 29 30 30 33 34 36 38 38 38 41 44 46 47 48 48 48 49 49 49 49 49 49 49 49 48 48 48 48 48 47 47 48 48 48 47 46 46 47 47 47 49 49 48 46 44 43 42 42 42 42 42 40 37 36 35 33 30 29 28 28 29 32 34 35 36 35
1 1 3 4 2 4 5 5 4 1 11 24 20 12 15 18 20 25 27 27 29 31 32 34 36 40 42 41 42 44 45 45 46 47 48 49 49 49 49 49 49 49 49 48 48 48 48 48 48 48 48 49 50 49 48 47 47 47 47 48 49 47 47 46 44 42 42 42 42 43 42 39 36 37 37 33 29 28 27 27 28 30 32 34 35 35
2 5 6 5 3 6 6 4 5 10 21 28 23 19 25 28 28 29 31 32 33 34 35 38 41 44 45 44 45 45 44 45 47 48 49 50 50 49 49 48 49 49 49 48 48 48 49 49 49 50 50 50 49 48 48 48 47 47 48 48 47 46 46 47 45 44 44 43 43 43 41 37 35 37 38 34 30 28 26 26 27 29 31 32 34 35
8 17 13 6 5 9 9 10 17 25 34 37 32 33 36 35 33 35 36 36 37 38 41 43 44 46 47 46 46 46 46 49 50 50 50 50 50 49 49 50 51 51 50 50 49 50 51 51 51 52 51 50 49 48 48 47 47 48 48 48 46 45 45 46 46 45 44 44 44 43 41 36 34 37 37 34 32 29 26 25 26 27 29 31 32 34
11 21 14 5 7 9 7 12 23 30 34 34 32 35 38 37 37 39 39 39 40 43 46 47 47 48 48 47 48 49 50 51 51 51 51 51 51 51 50 51 52 52 52 53 53 53 53 52 52 52 51 50 51 50 47 46 47 48 48 47 46 45 45 45 45 45 44 43 43 42 39 35 35 37 36 34 32 29 26 25 25 26 28 29 31 33
10 16 10 5 9 9 8 16 28 33 33 32 31 35 39 40 41 43 42 43 46 48 50 50 49 48 48 49 50 50 50 51 50 51 52 52 52 52 52 52 53 53 54 55 55 53 52 52 53 53 51 50 52 52 49 47 47 48 48 47 46 45 45 45 44 44 44 43 41 40 37 35 36 36 35 33 31 28 26 24 24 25 26 26 27 29
10 11 8 8 9 8 10 21 30 29 27 31 36 40 42 42 44 44 44 46 48 50 51 50 48 47 49 51 51 50 49 50 50 52 53 53 53 52 52 53 54 55 55 56 54 52 51 52 53 52 50 51 53 52 49 46 47 48 47 46 46 45 44 44 43 43 43 42 40 39 38 37 37 36 34 32 29 26 24 23 22 22 22 23 24 25
10 7 8 9 8 6 11 21 26 20 17 26 37 41 42 43 43 42 43 46 48 49 49 48 48 50 51 52 52 51 50 51 52 53 53 53 53 53 53 53 53 54 56 57 55 54 53 52 51 50 49 51 52 50 47 46 47 48 47 46 45 44 43 42 42 43 43 41 40 39 38 37 37 36 34 32 28 24 22 20 20 20 20 20 21 22
10 7 9 9 8 10 18 27 30 24 22 30 39 42 42 42 41 41 45 48 48 48 48 48 50 53 54 54 54 52 52 53 53 53 52 52 53 54 53 53 53 55 57 56 54 53 52 51 50 50 49 49 50 48 47 46 46 46 47 46 45 43 42 41 41 42 42 41 39 38 36 35 35 35 33 30 26 22 19 17 18 19 19 20 20 21
Wind_Direction
331 356 47 35 0 355 13 23 341 308 299 292 303 296 279 281 278 284 291 154 110 283 258 261 269 275 283 287 282 284 280 265 261 261 263 262 252 242 243 250 249 243 242 243 245 247 250 258 264 267 270 273 273 272 277 281 283 283 280 281 283 281 278 276 274 272 270 268 266 265 265 268 272 276 281 286 289 289 285 282 279 281 284 283 281 284
327 38 47 35 11 357 350 334 305 291 286 286 291 284 283 275 273 299 5 175 124 110 272 277 280 280 285 289 287 288 285 268 264 263 266 272 271 256 244 252 254 246 243 241 239 246 254 264 268 271 273 275 276 276 280 285 284 283 280 280 282 281 279 278 277 275 273 272 269 266 266 267 269 275 281 285 288 288 284 279 278 282 285 283 282 284
3 94 63 9 1 323 269 248 261 275 276 277 274 268 281 286 295 324 93 157 120 136 282 289 289 288 287 286 285 283 271 261 267 272 278 284 291 284 266 269 271 256 244 236 236 250 263 266 263 269 279 281 280 278 283 288 285 283 282 281 282 282 281 280 278 276 275 273 269 265 265 265 266 270 275 278 281 282 278 275 276 280 283 282 282 283
6 93 83 4 325 303 277 245 259 282 274 254 256 257 275 338 357 317 335 332 286 246 276 294 298 287 281 282 282 277 259 251 283 304 309 307 307 305 305 307 304 296 285 264 249 265 285 281 270 271 284 290 285 280 284 290 288 286 287 286 285 283 282 280 277 275 274 270 266 262 259 260 261 263 264 267 272 274 273 273 276 279 282 283 282 282
25 72 41 311 257 289 320 295 295 312 309 279 261 266 289 342 340 283 300 314 294 268 269 301 308 279 277 314 309 309 79 118 0 329 321 322 318 324 343 345 341 333 337 349 343 330 331 323 309 297 294 295 292 287 289 293 293 292 292 291 288 285 283 280 277 273 269 266 263 259 255 253 255 258 261 265 273 277 277 277 278 281 284 285 284 285
113 105 347 280 249 295 317 297 335 45 321 308 289 81 297 312 299 285 308 322 316 303 208 41 332 287 3 344 313 354 38 33 43 343 348 17 34 23 22 24 26 23 10 6 2 353 347 340 331 319 305 300 299 296 295 296 295 293 293 292 290 288 285 281 276 270 266 264 263 262 260 256 255 257 261 266 273 280 285 286 285 282 283 285 285 286
151 137 214 278 288 303 287 276 25 77 340 305 230 207 283 291 287 289 313 333 312 297 274 162 273 278 328 331 311 21 36 36 35 1 359 32 51 48 41 38 32 24 14 5 1 359 353 344 340 332 317 306 303 302 301 298 296 294 293 292 291 290 287 282 275 270 266 264 264 265 263 261 259 259 261 266 273 281 286 286 282 278 279 282 283 284
208 158 201 256 290 291 291 276 5 46 340 288 245 312 318 296 284 292 312 290 266 298 295 246 190 250 302 302 314 16 54 50 28 7 3 30 50 53 48 41 29 17 8 2 1 2 357 349 343 337 326 314 307 306 305 303 302 300 295 292 291 290 289 283 276 271 267 266 267 266 264 261 260 260 261 265 272 277 277 275 274 274 275 278 279 281
292 109 201 295 311 293 320 45 26 10 283 280 331 316 295 278 276 291 295 269 278 309 306 258 146 211 282 291 316 354 44 31 16 17 10 25 52 60 49 32 20 12 5 1 1 359 352 344 339 335 331 325 320 316 313 312 311 307 301 294 290 290 290 285 277 271 268 268 267 266 264 261 259 259 258 261 265 269 272 273 274 275 276 275 276 279
32 41 29 15 329 327 1 355 226 214 256 310 320 289 274 266 256 244 247 278 300 289 306 9 74 334 289 302 330 10 24 5 5 20 15 20 39 50 35 14 5 4 3 2 0 353 344 337 334 333 331 328 325 322 320 318 317 313 308 300 294 292 290 285 278 272 269 267 266 266 264 262 259 258 256 257 261 266 273 277 279 281 279 275 273 276
100 68 31 36 347 339 324 290 244 207 276 322 318 287 285 281 206 151 212 264 341 308 327 3 15 0 310 297 339 7 346 349 24 25 21 23 28 25 10 1 358 359 1 1 355 347 340 335 330 329 330 327 323 321 320 320 320 318 314 307 300 295 291 284 277 273 270 267 266 266 265 263 260 258 256 257 260 266 273 279 283 285 282 276 271 272
87 66 75 62 11 335 284 284 273 183 255 316 306 298 317 323 78 91 207 122 18 328 318 341 341 319 275 283 318 340 354 67 59 43 26 21 27 15 0 359 360 358 360 357 348 341 338 335 329 324 325 328 325 320 319 319 321 322 320 315 307 300 293 285 278 274 270 267 267 267 266 264 261 258 257 258 261 265 273 280 284 286 283 276 270 269
341 308 116 100 35 3 301 305 4 131 197 332 318 336 346 344 6 356 349 9 339 297 243 296 344 311 247 270 296 347 44 70 92 101 82 18 9 7 0 0 360 360 358 350 342 337 335 334 332 326 324 329 329 323 320 319 320 323 325 322 316 309 300 288 280 275 271 268 268 268 266 265 262 259 257 258 261 265 272 278 282 285 283 276 270 269
332 303 30 82 31 6 342 340 1 323 330 344 342 2 359 353 358 338 334 329 311 296 266 262 358 313 263 281 304 97 103 128 133 115 67 16 6 2 359 0 1 358 351 342 338 335 332 332 333 331 329 332 332 326 322 321 320 321 325 325 321 316 308 293 282 276 272 269 268 269 268 266 263 260 258 258 261 263 268 276 281 284 284 278 271 268
352 327 340 35 358 339 10 40 38 283 307 311 315 11 355 29 37 312 320 323 305 306 301 301 34 285 275 310 302 140 137 149 135 69 24 14 8 360 356 1 359 349 342 338 337 335 333 334 336 334 333 333 333 328 324 325 325 323 325 324 320 317 312 300 286 277 273 270 269 268 268 266 264 261 260 259 261 263 266 273 279 283 285 282 274 267
10 298 299 54 77 3 39 101 251 307 306 280 302 46 5 127 132 248 268 271 274 292 297 291 255 260 279 312 289 138 48 39 58 25 16 11 3 357 358 2 353 341 337 337 337 335 338 340 337 334 333 333 334 331 325 326 327 326 327 326 321 317 314 305 292 281 275 272 268 268 268 267 265 262 260 259 261 263 265 272 278 282 286 285 277 268
11 289 306 344 50 62 77 173 325 9 331 294 348 0 270 171 146 211 278 273 274 275 283 297 295 292 313 325 327 5 359 359 11 9 11 8 2 3 4 358 346 338 337 336 336 338 340 339 337 337 336 335 335 332 326 323 323 323 326 329 327 320 315 309 298 285 277 272 268 268 268 267 265 263 262 261 262 263 265 269 276 281 285 286 279 269
21 287 302 329 18 50 104 120 9 341 281 346 341 301 295 163 129 130 274 291 311 288 292 314 298 299 318 317 335 356 346 342 346 344 353 10 13 9 357 348 340 337 336 336 338 340 339 340 341 341 339 336 336 334 329 324 322 321 322 328 332 327 321 315 303 289 279 273 270 269 268 268 267 266 265 263 262 262 264 268 274 279 283 286 280 269
4 296 297 25 12 239 155 85 3 282 239 211 298 303 336 55 307 295 281 296 312 288 292 308 297 296 283 259 324 342 328 329 339 338 353 18 17 3 348 342 338 335 336 337 340 340 339 342 343 343 341 339 340 341 339 333 327 322 320 326 334 334 329 321 310 295 282 275 272 270 269 268 268 267 266 263 260 261 264 268 273 277 281 283 280 270
359 320 290 327 346 327 166 67 3 303 276 280 322 326 42 145 239 272 321 284 269 278 288 303 303 293 267 260 328 323 312 330 345 342 2 18 4 352 345 341 335 333 337 340 339 339 339 339 340 342 343 344 345 346 348 346 339 331 326 328 335 339 336 329 319 304 288 279 274 271 270 268 267 267 265 262 259 260 265 268 271 275 278 280 280 272
327 279 282 306 336 342 327 227 313 284 280 309 348 307 289 334 285 292 303 180 198 281 289 303 297 280 275 296 316 303 306 340 347 343 2 3 351 345 343 339 333 334 339 337 335 337 337 337 340 342 343 344 346 348 351 352 350 345 338 335 335 338 340 336 327 314 298 285 276 273 270 268 267 267 265 263 260 259 264 267 269 272 275 277 279 274
343 296 291 306 325 324 285 219 243 248 218 207 247 251 255 31 40 335 309 268 112 222 248 278 282 278 282 288 287 292 315 341 339 346 358 347 343 339 336 335 333 335 335 331 331 333 335 338 341 343 344 344 344 347 349 351 354 353 349 343 338 338 340 339 333 323 309 292 280 274 271 268 267 266 264 262 260 260 263 266 267 269 271 274 277 275
0 271 276 278 276 289 274 238 255 274 265 243 245 218 99 111 145 215 274 289 308 278 230 206 249 274 283 257 271 306 331 329 328 339 349 341 335 330 330 332 332 330 328 327 327 329 332 337 339 342 344 344 344 345 346 348 351 354 354 351 345 341 341 340 336 328 316 301 287 278 273 269 267 266 264 262 260 260 262 265 266 267 268 271 275 274
351 223 287 290 270 282 291 270 271 296 12 327 271 207 144 137 153 187 220 286 308 274 237 227 254 271 293 320 313 318 322 320 321 328 339 336 328 324 325 327 327 325 324 323 323 327 332 335 338 341 342 343 344 345 345 345 347 349 353 354 351 346 344 342 339 332 321 310 296 284 276 271 268 266 265 263 261 261 263 264 264 264 267 269 272 273
349 187 336 324 312 321 326 324 317 325 2 313 287 155 125 116 80 66 259 63 311 234 211 213 259 271 292 317 315 313 316 316 314 317 329 329 321 319 322 325 326 323 320 320 321 328 334 335 337 339 340 342 343 344 344 345 346 346 348 351 353 352 349 346 343 336 326 315 302 290 281 274 270 267 265 264 263 262 262 263 263 263 265 266 269 271
320 273 311 311 309 313 314 318 311 311 323 306 292 312 118 162 150 158 254 216 240 247 223 218 253 271 288 300 302 306 312 310 309 315 324 322 317 317 322 328 328 322 318 318 322 329 334 336 336 338 339 341 342 343 343 343 345 346 345 347 350 352 352 350 346 341 332 321 308 296 287 280 274 270 267 265 264 263 262 262 262 262 263 265 267 268
277 272 251 222 235 256 262 274 286 302 305 290 289 295 286 199 179 182 192 210 228 275 281 255 250 267 286 292 298 307 307 304 306 315 320 319 319 320 323 327 327 321 315 316 325 333 335 335 336 337 338 339 340 342 341 341 342 343 343 344 346 348 351 351 349 345 338 328 315 304 295 287 280 274 269 266 265 264 263 262 261 261 262 263 264 265
305 280 251 221 241 251 257 273 285 294 281 274 282 287 282 238 175 176 208 227 227 334 284 264 263 275 284 290 298 302 301 299 303 315 320 320 320 320 322 325 325 319 314 321 335 340 337 335 335 335 336 337 339 340 340 339 339 339 340 342 343 344 347 349 348 347 343 335 323 313 304 296 287 278 271 267 265 264 262 261 261 261 261 261 261 263
101 276 257 180 253 262 264 271 276 279 273 268 267 271 277 267 199 191 225 238 224 213 251 266 284 286 282 289 295 294 295 302 311 316 319 319 321 325 327 325 320 316 323 340 345 341 337 337 336 335 335 335 336 337 337 337 337 336 336 337 338 340 342 344 346 345 344 339 331 323 313 303 292 282 275 269 265 263 261 260 260 259 259 259 260 262
147 262 276 225 268 278 272 261 261 261 268 275 273 268 271 269 243 225 237 241 227 231 249 265 279 278 277 283 283 283 293 311 319 318 319 322 328 332 326 320 319 328 346 351 346 340 339 339 338 336 335 334 334 334 333 333 333 332 332 333 333 334 336 339 341 343 343 341 336 330 320 309 298 287 279 272 267 264 262 260 259 257 257 258 259 261
164 284 332 316 291 295 284 260 264 268 271 282 285 282 278 276 270 256 250 244 231 243 257 263 268 272 276 279 279 286 307 326 323 319 323 332 336 332 326 328 340 353 354 349 344 341 341 340 339 337 335 333 332 332 331 330 330 329 330 330 328 328 330 332 335 339 342 340 337 334 327 317 305 292 283 276 270 266 262 260 258 256 256 257 257 259
172 286 331 348 312 294 298 320 316 305 295 289 284 281 279 277 273 265 259 244 221 240 266 274 276 279 283 287 290 302 327 333 323 325 335 340 340 341 346 353 356 354 349 346 344 342 341 341 338 336 334 333 332 331 331 330 329 328 329 328 325 324 325 327 329 333 338 339 337 334 330 323 312 298 288 280 273 268 263 259 257 256 256 255 255 256
138 322 326 346 308 288 307 328 321 315 313 298 285 292 287 273 269 273 277 265 238 231 260 280 282 287 296 306 313 328 337 329 326 337 344 347 351 357 359 356 352 349 348 345 343 341 340 338 336 334 333 332 331 330 330 330 329 328 328 327 324 322 321 322 324 326 331 335 335 333 330 325 317 305 293 284 276 269 264 260 257 257 256 255 254 254
132 146 272 280 273 288 308 322 323 317 303 282 308 314 302 286 282 286 288 286 275 263 273 285 290 299 310 320 329 329 327 331 337 342 348 358 4 360 353 351 350 348 346 343 341 339 336 335 333 331 330 329 328 328 329 329 329 328 326 325 322 320 319 319 320 321 325 329 331 331 329 324 317 308 299 289 279 271 265 262 260 258 257 255 253 252
145 207 251 252 238 282 307 325 327 310 294 302 312 312 310 309 304 298 293 290 295 304 308 308 310 317 325 333 341 340 339 345 344 344 356 6 4 358 355 352 349 346 343 341 338 334 331 329 327 325 324 324 324 324 324 324 325 326 325 323 321 319 318 317 316 317 321 325 327 328 327 323 316 309 302 292 282 273 268 265 262 260 258 256 254 252
228 259 268 272 255 270 305 320 298 292 298 304 306 312 350 13 342 322 308 301 321 340 342 342 344 348 349 353 357 354 349 345 339 344 5 5 358 356 353 346 341 338 334 331 328 324 322 321 319 318 319 319 320 320 319 319 321 322 321 320 318 318 318 316 314 315 318 322 324 324 324 321 315 309 302 294 285 277 270 266 263 261 259 257 254 252
198 239 313 291 248 245 286 282 278 294 301 304 307 315 22 358 325 311 299 312 8 17 7 358 358 359 359 360 359 355 349 343 336 351 3 356 346 342 338 332 329 326 322 320 318 317 316 316 315 316 316 316 316 316 315 316 318 318 316 316 316 316 317 315 313 314 315 317 319 320 320 318 313 307 302 295 288 281 275 269 265 263 261 257 254 253
212 234 87 351 270 302 317 291 295 303 296 309 321 291 316 322 308 284 260 301 20 17 7 2 359 356 357 358 356 354 349 344 339 348 346 338 331 327 325 322 321 318 315 315 315 315 316 316 316 317 316 315 314 314 315 316 316 315 313 312 313 314 313 313 312 313 313 312 314 316 316 315 310 305 300 295 291 286 279 272 266 264 262 258 255 255
258 270 41 265 266 310 307 271 288 283 280 333 340 338 344 334 317 296 284 307 8 4 359 358 354 350 354 354 350 349 345 340 331 325 326 323 320 319 317 315 315 313 312 313 313 314 315 315 315 316 315 314 313 314 316 317 315 314 312 311 312 312 311 311 311 312 311 310 310 311 313 313 309 305 299 295 293 289 281 274 269 264 261 258 256 256
260 239 173 220 245 268 250 248 277 260 306 357 352 354 354 343 331 331 307 315 2 355 349 350 348 344 346 343 341 345 341 326 314 309 315 316 314 313 313 312 311 310 310 311 311 311 312 313 314 315 314 314 314 315 316 315 314 313 311 311 312 310 310 310 311 311 310 308 307 308 312 314 311 307 301 296 294 291 283 275 269 263 260 258 255 253
255 193 193 214 255 269 247 259 281 242 11 4 357 5 4 353 345 4 322 321 344 341 338 344 340 335 337 337 335 332 316 312 309 308 312 313 311 311 312 311 310 309 308 308 309 310 312 313 314 314 313 314 315 315 316 315 314 313 312 311 310 309 309 311 310 309 309 307 305 306 310 314 313 309 303 298 294 289 281 274 267 262 260 257 253 250
291 247 221 205 250 265 235 273 280 242 15 2 357 11 14 9 4 347 326 321 328 329 332 338 335 332 333 330 326 320 313 312 312 310 312 312 310 310 311 310 310 309 308 309 310 312 313 313 312 311 312 313 314 316 317 316 315 315 315 313 311 310 310 309 309 309 308 307 305 305 308 313 314 309 304 298 292 286 281 274 267 261 258 255 252 250
278 291 289 253 269 287 270 305 297 250 1 359 360 13 16 8 334 330 327 322 324 327 330 333 331 331 329 324 320 317 313 312 312 311 311 311 309 309 309 309 308 307 308 310 311 312 311 310 309 309 310 312 314 315 317 317 316 317 316 316 315 315 312 308 307 309 308 306 306 306 308 312 313 309 303 298 291 286 281 275 267 260 256 253 250 247
231 187 300 292 331 329 289 309 343 328 354 2 10 12 354 342 335 335 332 326 326 328 329 328 327 326 323 318 316 314 311 311 312 311 311 310 309 308 307 307 307 307 307 309 309 309 309 307 308 309 310 312 313 314 316 316 316 315 315 317 321 322 319 315 314 314 312 310 309 307 308 311 311 307 303 298 291 285 279 273 266 258 253 251 247 244
57 40 341 301 342 336 297 302 13 0 353 357 0 354 347 342 338 337 334 330 328 328 328 326 323 321 319 316 314 313 313 313 312 311 311 309 308 308 306 306 306 306 305 306 306 307 308 308 309 310 310 310 311 313 314 316 316 314 315 319 323 325 323 321 321 321 318 315 312 308 308 311 309 304 302 298 290 284 278 271 263 255 250 247 244 240
34 18 356 327 341 334 323 350 2 354 350 349 346 345 345 342 338 336 333 330 327 326 325 322 319 318 318 316 315 314 313 313 312 311 310 309 309 309 308 308 308 307 307 308 309 310 311 311 311 310 309 309 311 312 314 315 315 315 316 320 324 325 324 323 323 322 320 318 314 310 310 310 305 302 301 297 290 285 279 270 263 255 250 246 242 239
15 7 354 335 345 336 329 357 355 345 340 340 338 338 338 336 334 332 328 326 324 322 321 320 318 318 317 316 315 314 313 313 312 311 312 313 312 313 313 312 312 312 313 313 314 315 314 313 312 312 311 311 313 315 316 316 316 316 318 321 325 326 325 324 323 322 320 319 316 313 311 309 304 302 300 295 290 285 276 267 261 253 248 245 242 238
351 358 356 343 343 331 313 333 336 331 330 334 335 334 334 332 329 327 325 323 322 320 320 320 319 318 317 316 316 314 313 314 314 315 316 316 316 318 318 316 316 316 316 316 316 315 314 314 313 313 313 314 316 317 316 316 316 317 319 322 326 327 326 326 325 323 322 321 319 317 314 309 306 304 299 293 290 284 274 266 261 255 253 252 248 243
360 5 358 333 328 320 316 329 333 329 329 333 333 331 329 327 324 322 321 321 320 319 319 320 319 318 317 317 317 316 315 316 317 318 318 318 318 318 318 317 317 317 316 316 315 314 314 313 313 314 314 316 317 317 315 315 317 319 321 324 327 328 328 327 327 325 325 324 323 320 317 313 309 305 300 295 292 286 278 272 269 265 262 260 256 252
17 13 354 338 328 324 326 330 331 327 322 326 326 324 323 322 320 318 319 319 319 320 320 320 320 320 319 318 317 317 316 316 317 318 318 318 317 317 317 317 317 316 317 316 314 313 314 313 313 314 314 316 319 319 318 317 318 320 323 326 328 329 328 328 328 327 328 328 327 325 322 317 312 307 301 297 294 289 282 277 274 270 264 259 256 254
21 1 350 343 319 314 323 325 324 320 314 316 319 319 319 321 321 319 319 320 321 322 323 322 321 320 320 319 319 318 318 317 317 318 317 316 316 316 316 317 316 316 317 316 313 313 314 313 313 315 315 317 320 321 320 319 319 321 324 327 329 330 329 329 328 327 328 330 330 330 328 323 316 309 304 299 295 291 288 282 275 269 261 257 254 249
Height
1518 1519 1523 1527 1529 1529 1527 1528 1529 1528 1527 1527 1526 1526 1523 1521 1517 1507 1505 1508 1508 1508 1503 1498 1496 1487 1478 1474 1469 1467 1467 1466 1464 1463 1462 1462 1462 1461 1462 1463 1463 1463 1463 1464 1466 1466 1467 1467 1467 1467 1467 1467 1467 1466 1466 1465 1464 1463 1461 1460 1459 1459 1457 1456 1455 1453 1453 1452 1453 1452 1452 1452 1452 1451 1451 1450 1450 1450 1450 1450 1449 1449 1449 1449 1449 1448
1518 1523 1528 1529 1529 1528 1528 1528 1528 1527 1526 1526 1525 1525 1522 1519 1514 1505 1506 1508 1508 1508 1502 1496 1494 1486 1479 1473 1465 1464 1465 1462 1460 1460 1461 1460 1460 1459 1459 1461 1461 1461 1462 1463 1463 1464 1465 1466 1466 1466 1465 1465 1464 1464 1464 1463 1462 1460 1459 1457 1456 1455 1454 1453 1451 1450 1449 1449 1449 1449 1449 1449 1449 1448 1447 1447 1447 1446 1446 1447 1446 1446 1446 1446 1446 1446
1521 1526 1529 1528 1528 1528 1528 1527 1527 1527 1527 1526 1525 1525 1522 1516 1510 1506 1506 1507 1508 1509 1501 1494 1493 1486 1478 1472 1464 1461 1461 1459 1458 1459 1460 1459 1458 1459 1459 1460 1460 1460 1462 1462 1462 1462 1463 1464 1464 1464 1463 1463 1463 1462 1462 1461 1459 1458 1456 1455 1453 1452 1450 1449 1448 1447 1446 1446 1446 1447 1447 1446 1446 1445 1445 1445 1444 1444 1443 1443 1443 1443 1443 1443 1443 1443
1524 1528 1529 1528 1529 1528 1527 1526 1526 1526 1525 1525 1524 1523 1519 1515 1515 1514 1509 1506 1508 1507 1500 1495 1495 1486 1476 1469 1461 1458 1457 1457 1459 1459 1459 1459 1459 1460 1461 1461 1460 1460 1462 1463 1463 1464 1463 1463 1463 1463 1462 1462 1461 1460 1459 1458 1457 1455 1453 1452 1450 1449 1448 1446 1445 1444 1444 1443 1444 1444 1444 1444 1443 1443 1443 1443 1443 1442 1442 1441 1440 1439 1440 1440 1439 1439
1527 1529 1529 1529 1529 1527 1528 1526 1524 1526 1525 1522 1520 1521 1520 1518 1521 1519 1512 1508 1505 1502 1499 1498 1494 1481 1470 1467 1461 1456 1458 1458 1458 1459 1459 1459 1460 1461 1462 1462 1461 1461 1463 1465 1465 1466 1465 1464 1463 1462 1461 1461 1460 1459 1457 1455 1453 1451 1450 1449 1448 1446 1445 1444 1442 1441 1441 1441 1440 1440 1441 1441 1441 1441 1441 1441 1441 1440 1440 1439 1438 1437 1437 1437 1436 1436
1527 1529 1529 1529 1528 1526 1527 1526 1524 1526 1526 1523 1521 1522 1523 1521 1522 1519 1515 1513 1507 1502 1499 1500 1502 1484 1466 1468 1464 1458 1459 1460 1460 1461 1461 1460 1461 1463 1464 1464 1464 1464 1466 1467 1466 1467 1466 1466 1465 1463 1461 1460 1459 1457 1456 1453 1451 1449 1447 1446 1445 1443 1442 1441 1439 1438 1438 1437 1437 1436 1436 1437 1438 1438 1438 1438 1438 1438 1437 1436 1435 1434 1434 1434 1434 1433
1527 1529 1529 1528 1527 1526 1526 1526 1524 1525 1528 1525 1521 1522 1523 1522 1522 1519 1518 1519 1514 1506 1498 1500 1509 1497 1477 1471 1465 1460 1463 1464 1464 1464 1463 1463 1463 1465 1466 1467 1468 1468 1468 1467 1467 1466 1466 1465 1465 1463 1461 1459 1457 1455 1454 1452 1449 1447 1445 1443 1442 1440 1439 1438 1436 1435 1434 1434 1433 1433 1433 1434 1435 1435 1436 1436 1435 1435 1434 1433 1433 1432 1431 1430 1431 1430
1528 1528 1529 1528 1528 1527 1525 1526 1525 1526 1529 1525 1521 1524 1524 1521 1521 1518 1519 1521 1516 1509 1501 1496 1502 1505 1494 1479 1466 1463 1467 1467 1468 1468 1466 1466 1466 1468 1469 1470 1470 1470 1469 1468 1467 1465 1465 1465 1464 1463 1461 1458 1456 1454 1452 1450 1447 1445 1443 1441 1439 1437 1436 1435 1433 1431 1430 1430 1430 1430 1430 1430 1431 1432 1433 1433 1432 1431 1431 1431 1430 1430 1428 1427 1427 1427
1528 1528 1529 1529 1529 1527 1526 1528 1528 1529 1528 1524 1524 1526 1522 1520 1519 1518 1520 1521 1516 1514 1507 1495 1497 1506 1499 1479 1467 1466 1469 1471 1471 1471 1470 1470 1470 1471 1472 1472 1471 1471 1470 1469 1467 1465 1465 1464 1463 1461 1460 1458 1456 1453 1450 1447 1445 1443 1441 1439 1437 1435 1433 1431 1430 1428 1427 1427 1427 1427 1427 1427 1428 1429 1430 1430 1430 1429 1428 1429 1428 1428 1427 1425 1424 1424
1528 1529 1530 1529 1530 1529 1529 1529 1528 1529 1528 1525 1524 1522 1519 1517 1516 1518 1521 1519 1516 1516 1510 1500 1500 1507 1499 1480 1472 1472 1473 1476 1474 1473 1474 1473 1472 1473 1472 1472 1471 1470 1469 1468 1466 1465 1465 1463 1461 1459 1457 1456 1454 1452 1449 1446 1443 1441 1438 1437 1434 1432 1431 1428 1426 1424 1423 1423 1423 1423 1423 1423 1424 1425 1426 1427 1427 1427 1426 1426 1425 1425 1424 1423 1422 1421
1530 1530 1530 1531 1531 1531 1530 1528 1526 1527 1527 1525 1523 1519 1514 1511 1512 1519 1519 1518 1518 1514 1511 1507 1502 1507 1506 1487 1475 1476 1479 1479 1476 1476 1476 1475 1474 1474 1472 1471 1470 1469 1468 1467 1466 1465 1464 1462 1460 1458 1455 1453 1451 1448 1446 1444 1441 1439 1436 1434 1432 1429 1428 1425 1423 1421 1420 1420 1420 1420 1420 1420 1420 1421 1422 1423 1423 1423 1423 1423 1422 1421 1421 1420 1419 1418
1530 1531 1531 1531 1532 1531 1530 1528 1525 1527 1528 1526 1523 1519 1516 1510 1509 1515 1515 1517 1521 1514 1512 1512 1502 1506 1508 1491 1477 1477 1479 1478 1477 1478 1478 1475 1474 1472 1471 1471 1470 1469 1468 1467 1466 1464 1462 1460 1457 1455 1452 1450 1448 1446 1443 1441 1439 1436 1434 1431 1429 1427 1425 1423 1420 1418 1417 1416 1416 1416 1416 1416 1416 1417 1417 1418 1419 1419 1419 1419 1419 1418 1417 1417 1416 1415
1529 1531 1532 1532 1532 1532 1531 1528 1526 1527 1526 1527 1524 1523 1525 1521 1518 1521 1519 1518 1518 1512 1511 1511 1506 1507 1503 1488 1479 1478 1477 1477 1477 1477 1476 1474 1472 1471 1471 1470 1469 1468 1468 1466 1465 1462 1460 1458 1455 1452 1450 1448 1446 1444 1441 1439 1437 1434 1432 1429 1426 1424 1422 1420 1417 1415 1414 1413 1413 1413 1413 1413 1413 1413 1413 1414 1415 1415 1415 1415 1415 1414 1414 1413 1412 1412
1533 1531 1531 1532 1532 1533 1532 1531 1531 1529 1527 1529 1527 1528 1532 1534 1537 1537 1529 1523 1521 1514 1508 1507 1509 1507 1497 1484 1477 1476 1476 1476 1475 1474 1474 1472 1472 1472 1471 1470 1469 1468 1467 1466 1463 1461 1458 1456 1454 1451 1449 1446 1444 1442 1440 1437 1435 1432 1430 1427 1424 1421 1419 1417 1414 1412 1410 1409 1409 1410 1410 1410 1409 1409 1410 1410 1411 1411 1411 1411 1411 1410 1410 1409 1408 1408
1543 1538 1532 1532 1533 1533 1534 1534 1536 1534 1532 1531 1528 1529 1533 1536 1544 1544 1535 1531 1530 1521 1511 1507 1507 1502 1493 1484 1475 1473 1474 1475 1474 1472 1472 1472 1471 1472 1471 1470 1469 1467 1466 1465 1462 1460 1458 1455 1453 1450 1447 1445 1443 1440 1438 1436 1433 1430 1428 1425 1422 1419 1417 1414 1411 1409 1407 1406 1406 1406 1406 1406 1406 1406 1406 1406 1407 1407 1407 1407 1407 1406 1406 1405 1405 1404
1546 1540 1532 1533 1534 1535 1535 1535 1537 1535 1533 1530 1527 1529 1532 1534 1539 1540 1533 1530 1529 1526 1518 1508 1501 1492 1485 1479 1472 1473 1473 1472 1473 1471 1470 1472 1471 1471 1471 1469 1469 1467 1466 1464 1461 1459 1457 1454 1452 1449 1446 1444 1441 1439 1436 1434 1432 1429 1426 1422 1419 1417 1414 1412 1410 1407 1405 1404 1403 1403 1403 1403 1403 1403 1403 1403 1403 1403 1403 1403 1403 1403 1402 1402 1401 1401
1552 1542 1532 1533 1536 1536 1537 1536 1537 1536 1534 1531 1529 1531 1532 1532 1535 1536 1533 1525 1524 1528 1518 1505 1500 1491 1485 1481 1473 1472 1472 1470 1472 1471 1470 1471 1470 1470 1471 1469 1469 1467 1465 1463 1461 1459 1456 1454 1451 1448 1446 1443 1440 1437 1434 1432 1429 1427 1424 1420 1416 1414 1411 1409 1407 1405 1403 1402 1400 1400 1400 1400 1399 1400 1399 1399 1400 1399 1400 1400 1399 1399 1399 1398 1398 1398
1560 1550 1536 1534 1536 1536 1538 1537 1536 1537 1536 1533 1532 1533 1531 1530 1531 1533 1534 1529 1527 1531 1519 1507 1506 1499 1495 1492 1478 1474 1475 1472 1471 1470 1469 1469 1470 1470 1470 1469 1468 1466 1464 1462 1460 1458 1455 1453 1450 1447 1445 1442 1439 1436 1432 1429 1427 1424 1421 1418 1414 1410 1408 1406 1403 1402 1400 1399 1398 1397 1397 1397 1396 1396 1397 1396 1396 1396 1396 1396 1396 1396 1395 1395 1394 1394
1561 1555 1541 1535 1537 1537 1538 1538 1536 1535 1536 1535 1534 1534 1532 1534 1534 1531 1533 1534 1536 1538 1526 1513 1508 1500 1495 1491 1481 1478 1478 1473 1471 1470 1469 1469 1469 1470 1469 1468 1467 1464 1462 1460 1458 1456 1454 1451 1449 1446 1443 1440 1437 1434 1430 1427 1424 1421 1418 1415 1411 1408 1405 1403 1400 1398 1397 1396 1395 1394 1394 1393 1393 1393 1393 1393 1393 1392 1391 1391 1392 1392 1391 1391 1390 1390
1560 1559 1549 1537 1535 1537 1535 1535 1536 1534 1534 1535 1535 1534 1533 1535 1535 1531 1531 1534 1537 1538 1530 1522 1514 1500 1487 1482 1480 1480 1476 1472 1472 1470 1469 1470 1470 1470 1469 1467 1465 1462 1460 1459 1457 1455 1452 1450 1447 1445 1442 1438 1435 1432 1429 1425 1422 1418 1415 1412 1409 1405 1402 1400 1398 1395 1394 1392 1392 1391 1390 1390 1389 1389 1389 1389 1389 1388 1388 1387 1387 1387 1387 1387 1386 1386
1560 1561 1555 1541 1535 1536 1536 1536 1537 1535 1534 1535 1534 1534 1534 1532 1531 1531 1530 1528 1531 1534 1532 1530 1522 1500 1481 1477 1480 1478 1474 1471 1471 1469 1469 1469 1468 1468 1468 1466 1464 1461 1459 1457 1455 1453 1451 1448 1445 1443 1440 1437 1434 1431 1427 1424 1421 1417 1413 1410 1407 1403 1400 1397 1395 1393 1391 1389 1388 1387 1386 1386 1385 1385 1385 1385 1385 1384 1384 1383 1383 1383 1383 1382 1382 1381
1564 1563 1561 1552 1545 1539 1536 1536 1536 1534 1533 1533 1532 1531 1531 1532 1533 1538 1537 1527 1526 1532 1529 1533 1530 1501 1478 1477 1478 1475 1473 1471 1470 1469 1468 1467 1466 1466 1466 1465 1463 1461 1458 1456 1453 1451 1449 1446 1443 1441 1438 1435 1432 1429 1426 1423 1419 1416 1412 1409 1406 1402 1399 1395 1392 1390 1387 1386 1384 1383 1383 1382 1381 1381 1381 1380 1380 1380 1380 1379 1379 1379 1378 1378 1377 1377
1569 1567 1564 1558 1548 1540 1537 1537 1536 1535 1533 1533 1534 1531 1530 1532 1534 1540 1541 1532 1529 1531 1526 1532 1531 1500 1474 1475 1476 1473 1473 1471 1469 1469 1467 1465 1465 1464 1464 1463 1461 1459 1457 1454 1452 1449 1447 1444 1442 1439 1436 1433 1430 1427 1424 1421 1418 1415 1411 1408 1405 1401 1398 1394 1390 1388 1385 1383 1381 1380 1380 1379 1378 1378 1377 1376 1376 1376 1376 1376 1375 1375 1374 1374 1373 1373
1568 1565 1563 1555 1543 1536 1536 1536 1535 1536 1535 1532 1531 1531 1532 1534 1532 1534 1537 1535 1535 1532 1527 1531 1526 1494 1473 1474 1474 1471 1471 1470 1469 1468 1465 1464 1463 1462 1462 1460 1458 1457 1454 1453 1451 1448 1446 1444 1441 1438 1435 1431 1428 1425 1422 1419 1416 1413 1410 1406 1403 1400 1396 1393 1389 1386 1383 1380 1378 1377 1376 1375 1375 1375 1373 1372 1371 1371 1371 1371 1371 1371 1370 1369 1369 1369
1566 1561 1561 1559 1550 1542 1538 1537 1535 1535 1534 1531 1529 1530 1532 1533 1535 1536 1535 1537 1539 1529 1523 1530 1521 1491 1473 1473 1472 1471 1470 1467 1466 1465 1463 1463 1462 1461 1460 1457 1456 1454 1452 1450 1448 1446 1444 1442 1439 1437 1434 1430 1427 1424 1421 1417 1414 1411 1407 1404 1401 1398 1394 1391 1387 1384 1381 1378 1376 1374 1372 1371 1371 1369 1368 1368 1368 1367 1367 1367 1367 1367 1366 1365 1365 1365
1569 1563 1563 1563 1561 1557 1552 1548 1543 1538 1537 1532 1528 1530 1532 1532 1535 1535 1534 1539 1539 1525 1518 1522 1512 1489 1475 1474 1472 1471 1469 1466 1464 1462 1461 1461 1460 1458 1457 1455 1454 1452 1449 1447 1445 1443 1442 1440 1437 1435 1432 1429 1426 1422 1419 1416 1412 1409 1405 1402 1399 1396 1392 1389 1386 1383 1380 1377 1375 1372 1370 1368 1366 1365 1364 1365 1365 1364 1364 1364 1363 1362 1362 1361 1361 1361
1571 1566 1564 1562 1559 1557 1554 1549 1543 1542 1543 1538 1530 1529 1530 1531 1532 1532 1535 1537 1530 1522 1518 1510 1500 1490 1481 1475 1473 1471 1468 1465 1461 1460 1459 1458 1457 1456 1454 1453 1452 1449 1447 1445 1442 1440 1439 1437 1435 1433 1430 1428 1425 1421 1418 1415 1411 1407 1403 1400 1397 1394 1390 1387 1384 1381 1378 1376 1374 1371 1369 1367 1365 1363 1362 1361 1361 1360 1360 1360 1359 1359 1358 1357 1357 1357
1572 1567 1562 1560 1557 1552 1550 1546 1542 1543 1544 1538 1532 1528 1525 1528 1531 1532 1532 1526 1519 1522 1517 1497 1489 1491 1482 1474 1473 1470 1466 1463 1460 1458 1458 1456 1455 1454 1452 1451 1450 1447 1445 1443 1441 1439 1437 1435 1433 1431 1428 1426 1422 1420 1417 1413 1410 1406 1402 1399 1395 1392 1388 1385 1382 1379 1376 1373 1371 1369 1367 1366 1364 1362 1360 1358 1357 1356 1355 1355 1355 1355 1354 1353 1353 1353
1573 1568 1561 1560 1557 1552 1550 1547 1542 1542 1541 1535 1530 1526 1522 1523 1526 1527 1523 1517 1516 1520 1510 1490 1487 1490 1480 1473 1472 1468 1464 1462 1459 1458 1458 1456 1455 1454 1452 1450 1447 1445 1443 1441 1440 1439 1437 1435 1432 1429 1427 1424 1421 1418 1414 1411 1408 1404 1401 1397 1393 1390 1387 1383 1380 1377 1374 1371 1368 1366 1364 1363 1362 1360 1358 1356 1355 1352 1351 1350 1350 1350 1350 1350 1350 1350
1572 1566 1561 1561 1557 1550 1547 1544 1540 1541 1539 1530 1523 1521 1518 1517 1517 1517 1515 1512 1513 1512 1501 1493 1493 1488 1478 1473 1470 1465 1463 1461 1459 1458 1458 1456 1456 1454 1452 1449 1446 1444 1443 1441 1439 1439 1437 1435 1432 1429 1426 1423 1420 1417 1412 1409 1405 1402 1398 1395 1391 1388 1385 1381 1378 1374 1371 1368 1365 1363 1361 1359 1358 1356 1354 1353 1351 1350 1348 1347 1346 1345 1345 1345 1346 1347
1570 1564 1558 1559 1555 1545 1539 1536 1535 1537 1535 1528 1519 1515 1515 1512 1510 1508 1507 1505 1506 1504 1496 1494 1494 1485 1474 1470 1466 1463 1461 1460 1459 1459 1458 1457 1456 1454 1451 1449 1446 1445 1443 1441 1440 1438 1436 1433 1431 1428 1426 1422 1419 1416 1411 1407 1403 1400 1396 1392 1389 1386 1382 1379 1376 1372 1369 1366 1362 1360 1357 1355 1354 1352 1350 1348 1347 1346 1345 1344 1343 1342 1341 1341 1342 1343
1571 1567 1560 1560 1558 1545 1534 1533 1534 1533 1531 1525 1517 1512 1510 1508 1505 1503 1500 1498 1498 1496 1491 1491 1490 1480 1470 1466 1464 1461 1460 1460 1459 1459 1458 1458 1457 1455 1453 1451 1449 1447 1444 1442 1440 1438 1435 1432 1430 1427 1424 1421 1417 1413 1409 1405 1400 1396 1393 1389 1386 1383 1379 1376 1373 1369 1366 1363 1360 1357 1354 1351 1349 1347 1346 1345 1343 1342 1341 1341 1340 1339 1338 1337 1337 1339
1571 1570 1565 1565 1561 1544 1533 1535 1535 1532 1529 1518 1508 1506 1506 1504 1501 1498 1496 1494 1492 1491 1491 1490 1484 1473 1466 1465 1464 1462 1461 1460 1460 1460 1460 1459 1458 1458 1456 1454 1451 1449 1446 1443 1441 1438 1435 1432 1429 1427 1423 1419 1415 1411 1407 1403 1399 1394 1390 1387 1384 1380 1377 1373 1369 1366 1363 1359 1356 1353 1350 1347 1345 1343 1342 1341 1340 1339 1338 1336 1335 1335 1334 1334 1334 1335
1570 1571 1569 1567 1561 1547 1538 1538 1536 1532 1525 1512 1502 1503 1502 1500 1498 1496 1494 1493 1490 1489 1490 1485 1477 1471 1469 1468 1466 1464 1464 1463 1463 1463 1463 1462 1462 1460 1458 1455 1452 1449 1446 1443 1440 1437 1435 1432 1429 1425 1421 1417 1413 1409 1404 1401 1397 1393 1388 1385 1381 1378 1374 1370 1366 1362 1359 1356 1353 1349 1346 1343 1340 1338 1337 1337 1336 1336 1334 1332 1331 1331 1331 1332 1332 1332
1569 1570 1568 1563 1560 1552 1543 1542 1541 1531 1517 1507 1502 1500 1498 1496 1497 1497 1494 1493 1491 1490 1487 1483 1479 1475 1473 1471 1470 1469 1468 1467 1466 1466 1465 1465 1464 1461 1457 1454 1451 1448 1446 1443 1441 1438 1435 1431 1427 1423 1418 1414 1409 1405 1401 1397 1394 1390 1386 1382 1378 1374 1371 1367 1363 1359 1356 1352 1349 1346 1342 1339 1336 1334 1333 1332 1332 1331 1330 1328 1327 1327 1328 1328 1329 1329
1569 1570 1568 1563 1560 1554 1547 1546 1544 1528 1511 1505 1504 1499 1497 1498 1499 1499 1497 1493 1493 1494 1493 1490 1486 1482 1480 1479 1477 1475 1473 1470 1468 1466 1465 1464 1463 1462 1460 1457 1455 1452 1449 1445 1442 1438 1434 1430 1425 1420 1416 1410 1405 1401 1397 1393 1389 1386 1381 1377 1374 1370 1367 1364 1360 1356 1353 1349 1346 1343 1339 1336 1332 1330 1329 1328 1327 1326 1325 1324 1323 1323 1324 1324 1325 1325
1570 1569 1569 1565 1558 1553 1550 1546 1539 1527 1515 1509 1504 1501 1502 1502 1501 1501 1500 1495 1496 1501 1502 1500 1496 1492 1489 1486 1483 1481 1477 1472 1469 1467 1467 1467 1467 1466 1464 1461 1457 1453 1449 1444 1439 1435 1430 1426 1421 1417 1412 1407 1402 1397 1393 1389 1386 1382 1378 1373 1369 1366 1363 1360 1356 1353 1349 1346 1343 1340 1336 1333 1330 1327 1325 1324 1322 1321 1320 1320 1319 1319 1319 1320 1320 1320
1570 1568 1569 1567 1557 1552 1553 1551 1544 1536 1524 1510 1504 1504 1504 1501 1499 1500 1500 1498 1500 1504 1505 1504 1501 1497 1494 1490 1486 1483 1479 1475 1473 1472 1471 1471 1470 1467 1463 1459 1454 1449 1444 1440 1435 1429 1425 1420 1416 1412 1408 1403 1398 1393 1390 1386 1382 1379 1374 1369 1365 1362 1358 1356 1353 1349 1346 1342 1339 1336 1333 1330 1327 1324 1322 1320 1317 1316 1315 1314 1314 1314 1314 1314 1315 1315
1569 1568 1569 1570 1565 1559 1559 1558 1550 1538 1522 1512 1509 1508 1504 1501 1500 1499 1498 1499 1502 1505 1506 1506 1504 1500 1496 1493 1490 1485 1482 1479 1476 1473 1471 1470 1467 1463 1459 1454 1449 1445 1440 1435 1430 1425 1420 1415 1412 1408 1403 1399 1394 1389 1386 1382 1379 1375 1370 1365 1361 1357 1354 1351 1348 1345 1341 1338 1335 1332 1329 1326 1323 1320 1318 1316 1313 1311 1310 1309 1309 1309 1309 1309 1310 1311
1569 1570 1570 1570 1566 1561 1558 1555 1545 1531 1521 1519 1519 1515 1510 1504 1501 1501 1503 1505 1509 1512 1511 1510 1508 1504 1500 1496 1492 1488 1486 1483 1477 1471 1468 1466 1462 1459 1455 1449 1444 1439 1434 1430 1426 1421 1416 1411 1406 1402 1398 1394 1390 1385 1382 1378 1375 1371 1366 1361 1356 1352 1349 1347 1344 1340 1337 1333 1330 1328 1325 1323 1320 1316 1314 1312 1309 1307 1306 1305 1304 1304 1304 1305 1306 1308
1560 1564 1565 1563 1560 1555 1552 1549 1539 1527 1524 1527 1525 1520 1513 1504 1503 1513 1519 1517 1517 1518 1516 1513 1510 1505 1500 1495 1491 1488 1486 1483 1476 1469 1465 1461 1456 1452 1449 1444 1439 1435 1429 1425 1420 1415 1411 1406 1402 1398 1393 1389 1385 1381 1378 1374 1370 1366 1362 1357 1351 1347 1344 1342 1338 1335 1332 1328 1325 1323 1320 1318 1315 1312 1309 1307 1305 1303 1301 1299 1299 1299 1299 1301 1302 1303
1554 1554 1555 1556 1553 1546 1543 1540 1531 1524 1526 1530 1527 1521 1515 1514 1522 1530 1529 1524 1521 1518 1515 1512 1507 1501 1497 1493 1490 1486 1482 1477 1472 1465 1460 1456 1451 1446 1442 1438 1433 1429 1425 1420 1416 1411 1406 1402 1398 1394 1389 1385 1381 1376 1372 1369 1365 1360 1356 1352 1347 1342 1339 1336 1332 1329 1326 1323 1320 1318 1315 1313 1311 1308 1305 1303 1301 1298 1296 1294 1294 1294 1295 1296 1298 1299
1552 1551 1548 1546 1543 1540 1539 1536 1533 1534 1536 1535 1530 1526 1527 1532 1537 1534 1528 1524 1521 1516 1512 1508 1504 1499 1495 1491 1487 1483 1477 1471 1466 1461 1456 1451 1447 1442 1437 1433 1428 1424 1419 1415 1411 1406 1402 1397 1393 1389 1384 1380 1376 1372 1368 1364 1359 1355 1351 1346 1342 1337 1334 1330 1327 1324 1320 1318 1315 1312 1310 1308 1306 1303 1300 1298 1296 1294 1291 1290 1289 1289 1290 1292 1293 1295
1551 1551 1551 1546 1541 1543 1543 1539 1539 1546 1546 1540 1537 1538 1539 1540 1537 1532 1527 1523 1518 1514 1510 1505 1500 1497 1493 1487 1482 1478 1472 1467 1461 1456 1451 1447 1442 1437 1433 1428 1424 1419 1414 1410 1406 1402 1398 1394 1389 1384 1380 1376 1372 1368 1364 1360 1355 1350 1346 1341 1337 1333 1329 1325 1322 1319 1315 1312 1310 1307 1305 1303 1301 1298 1295 1293 1291 1289 1287 1285 1284 1285 1286 1287 1289 1291
1551 1553 1555 1551 1546 1546 1544 1541 1541 1544 1542 1539 1540 1541 1539 1536 1533 1530 1527 1520 1515 1512 1508 1502 1497 1493 1489 1484 1478 1472 1468 1463 1457 1452 1448 1442 1437 1433 1429 1424 1420 1415 1410 1406 1402 1398 1394 1390 1385 1380 1376 1372 1369 1365 1361 1356 1352 1346 1341 1337 1333 1329 1325 1321 1317 1313 1310 1307 1304 1301 1299 1297 1295 1292 1290 1288 1286 1284 1282 1281 1280 1280 1281 1282 1284 1286
1552 1554 1554 1551 1549 1547 1543 1540 1540 1539 1536 1536 1537 1536 1534 1533 1530 1526 1523 1518 1514 1510 1505 1501 1495 1489 1484 1480 1475 1469 1464 1459 1453 1448 1444 1439 1434 1430 1425 1420 1416 1411 1407 1402 1398 1394 1390 1386 1381 1377 1372 1368 1365 1361 1357 1353 1348 1342 1337 1333 1330 1326 1322 1318 1313 1309 1305 1302 1298 1296 1294 1292 1289 1287 1285 1284 1282 1280 1278 1276 1275 1276 1277 1278 1279 1281
1554 1555 1553 1553 1554 1551 1545 1541 1541 1540 1539 1538 1537 1535 1534 1531 1528 1525 1521 1517 1512 1508 1503 1499 1493 1486 1481 1477 1472 1466 1461 1455 1450 1444 1440 1436 1431 1426 1422 1417 1411 1407 1403 1398 1394 1390 1386 1381 1377 1372 1368 1363 1360 1356 1353 1348 1343 1338 1334 1330 1326 1322 1318 1314 1310 1305 1301 1297 1293 1291 1289 1286 1284 1282 1281 1279 1278 1276 1274 1272 1271 1272 1272 1273 1275 1277
1560 1557 1558 1559 1558 1555 1551 1547 1545 1543 1541 1540 1538 1535 1531 1528 1525 1522 1519 1514 1509 1504 1499 1495 1490 1484 1478 1472 1468 1463 1457 1452 1447 1442 1436 1432 1427 1422 1418 1413 1407 1403 1399 1394 1390 1386 1382 1377 1373 1368 1364 1359 1355 1351 1347 1343 1338 1334 1330 1327 1323 1319 1314 1310 1305 1301 1297 1293 1289 1286 1283 1281 1279 1278 1276 1275 1274 1272 1270 1268 1267 1267 1268 1269 1270 1272
1565 1563 1564 1564 1561 1557 1552 1548 1544 1540 1537 1537 1536 1533 1530 1527 1522 1518 1514 1510 1505 1500 1495 1490 1486 1481 1475 1469 1464 1459 1453 1449 1444 1439 1433 1428 1423 1418 1414 1409 1404 1399 1394 1389 1385 1382 1378 1373 1368 1363 1359 1355 1351 1347 1342 1338 1334 1330 1327 1323 1319 1315 1311 1306 1301 1297 1293 1289 1285 1282 1278 1276 1275 1273 1272 1271 1269 1268 1266 1264 1264 1264 1265 1265 1267 1268
1568 1568 1568 1567 1564 1560 1555 1550 1548 1543 1538 1536 1535 1532 1529 1526 1521 1515 1511 1506 1501 1497 1491 1486 1481 1476 1472 1467 1461 1456 1450 1445 1441 1436 1430 1425 1419 1414 1409 1404 1400 1395 1389 1384 1380 1376 1372 1368 1363 1359 1355 1351 1347 1343 1338 1334 1330 1326 1323 1320 1316 1312 1308 1303 1298 1294 1289 1286 1282 1279 1275 1273 1271 1270 1268 1267 1266 1264 1263 1262 1261 1261 1262 1263 1264 1266
1572 1572 1571 1569 1567 1563 1558 1554 1551 1547 1541 1537 1534 1531 1527 1524 1519 1513 1508 1503 1499 1494 1489 1483 1477 1472 1467 1463 1459 1454 1448 1442 1437 1432 1426 1420 1415 1410 1405 1401 1396 1390 1385 1379 1374 1369 1366 1362 1358 1355 1351 1347 1343 1339 1334 1330 1326 1323 1320 1316 1312 1309 1305 1301 1296 1291 1287 1283 1280 1276 1273 1271 1269 1267 1265 1264 1263 1261 1260 1260 1259 1259 1260 1261 1262 1264